Location: Huntsville
(34.7300°N, 86.5860°W)
Time: 21:49:27
(UTC-06:00)

OTV 5 (USA 277) - Visible Passes

Search period start: 18 January 2019 00:00
Search period end: 28 January 2019 00:00
Orbit: 339 x 349 km, 54.5° (Epoch: 15 January)

Date Brightness Start Highest point End Pass type
(mag) Time Alt. Az. Time Alt. Az. Time Alt. Az.
23 Jan ? 05:47:04 10° SSE 05:48:54 16° SE 05:50:45 10° E visible
24 Jan ? 06:09:29 10° SW 06:12:21 69° SE 06:15:15 10° NE visible
25 Jan ? 04:59:38 10° SSE 05:01:21 15° SE 05:03:05 10° E visible
26 Jan ? 05:23:39 32° SSW 05:24:48 64° SE 05:27:41 10° NE visible
27 Jan ? 05:47:46 25° WNW 05:48:29 28° NW 05:51:04 10° NNE visible
